Location: Niedergestelen
(46.3129°N, 7.7822°E)
Time: 05:47:26
(UTC+00:00)

Cosmos 1812 - Pass Details

Date: 01 December 2020
Orbit: 517 x 520 km, 82.5° (Epoch: 18 January)

Event Time Altitude Azimuth Distance (km) Brightness Sun altitude
Rises 17:31:22 0° 174° (S) 2,626 6.4 -17.9°
Reaches altitude 10° 17:33:32 10° 169° (S) 1,744 5.4 -18.3°
Enters shadow 17:37:09 49° 99° (E) 678 2.8 -18.9°
